Regional Weather Roundup
Issued by NWS

Home | Current Version | Previous Version | Text Only | Print | Product List | Glossary On
Versions: 1 2 3 4 5 6 7 8 9 10 11 12 13 14 15 16 17 18 19 20 21 22 23 24 25 26 27 28 29 30 31 32 33 34 35 36 37 38 39 40 41 42 43 44 45 46 47 48 49 50
291
ASUS42 KFFC 221910
RWRGA
WEATHER ROUNDUP FOR GEORGIA
NATIONAL WEATHER SERVICE PEACHTREE CITY GA
200 PM EST SUN JAN 22 2017

NOTE: "FAIR" INDICATES FEW OR NO CLOUDS BELOW 12,000 FEET WITH NO
SIGNIFICANT WEATHER AND/OR OBSTRUCTIONS TO VISIBILITY.

* = USE WITH CAUTION. THE STATIONS MARKED WITH AN ASTERISK MAY NOT
REPORT WEATHER SUCH AS PRECIPITATION, FOG, OR THUNDER AND ARE NOT
QUALITY CONTROLLED BY NWS.

THE REMARK "TC" DENOTES TEMPERATURE READING IN DEGREES CELSIUS.

GAZ001>058-222000-
NORTH GEORGIA

CITY           SKY/WX    TMP DP  RH WIND       PRES   REMARKS
ATLANTA        FOG       60  59  96 E13       29.35F VSB 1/4
ATHENS         CLOUDY    63  60  90 SE6       29.42F
CHAMBLEE       CLOUDY    60  57  89 E9        29.37F
PEACHTREE CITY CLOUDY    60  59  96 E10       29.34F FOG
ROME           CLOUDY    62  56  80 E10       29.33F
WEST ATLANTA   CLOUDY    61  57  87 E9G20     29.34F
GAINESVILLE    CLOUDY    57  57 100 E9        29.41F FOG
CARTERSVILLE   CLOUDY    60  57  89 VRB6      29.35F


CITY           SKY/WX    TMP DP  RH WIND       PRES   REMARKS
DALTON*        CLOUDY    63  55  77 SE7G16    29.35F
LAWRENCEVILLE* CLOUDY    61  57  88 E7        29.45  FOG
MARIETTA       CLOUDY    59  57  94 E9G18     29.34F
KENNESAW*      CLOUDY    59  57  94 E12       29.36F FOG
CANTON*        CLOUDY    59  54  82 E12       29.39F
$$

GAZ059>098-102>109-222000-
CENTRAL GEORGIA

CITY           SKY/WX    TMP DP  RH WIND       PRES   REMARKS
AUGUSTA-BUSH   LGT RAIN  65  61  87 S12       29.50F
AUGUSTA-DANIEL LGT RAIN  63  59  87 S10       29.52R
COLUMBUS       RAIN      63  62  97 E16G22    29.27F FOG
MACON          LGT RAIN  63  61  93 VRB3      29.38F
ROBINS AFB     LGT RAIN  63  62  95 CALM      29.38F


CITY           SKY/WX    TMP DP  RH WIND       PRES   REMARKS
LAGRANGE*      LGT RAIN  65  65 100 E6        29.28F
SYLVANIA*      TSTM     N/A N/A N/A CALM      29.55R
MILLEDGEVILLE* LGT RAIN  63  63 100 E3        29.39F
$$

GAZ099>101-110>166-222000-
SOUTH GEORGIA

CITY           SKY/WX    TMP DP  RH WIND       PRES   REMARKS
SAVANNAH       HVY RAIN  62  59  90 W5        29.54R FOG
VALDOSTA       PTSUNNY   76  70  82 S15G24    29.40F
ALMA           CLOUDY    64  64 100 SE6       29.45F
ST SIMONS      LGT RAIN  63  61  93 E10G29    29.51F
FT STEWART     LGT RAIN  61  61 100 SE6       29.48F FOG
ALBANY         CLOUDY    68  66  93 SE9       29.34F
HUNTER AFB     LGT RAIN  62  62 100 VRB3      29.52F FOG
MOODY AFB      PTSUNNY   66  64  94 E6        29.39F
BRUNSWICK      CLOUDY    63  63 100 N3        29.54S


CITY           SKY/WX    TMP DP  RH WIND       PRES   REMARKS
BAINBRIDGE*    CLOUDY    77  70  78 S21G26    29.29F
MOULTRIE*      PTSUNNY   70  68  94 SE8       29.37F
VIDALIA*       LGT RAIN  63  63 100 SE5       29.43F
WAYCROSS*      CLOUDY    66  66 100 SE8       29.46F
DOUGLAS*       CLOUDY    64  63  94 SE6       29.44F
$$




USA.gov is the U.S. government's official web portal to all federal, state and local government web resources and services.